When you browse on this site, cookies collect data to enhance your experience and personalize the content and advertising you see.
Visit our Privacy Policy to learn more. By continuing to use the site, you agree to this use of cookies and data.
  • In Austria
  • List of Countries
  • For 7 days
  • Water Temperature
  • Satellite Maps
  • Weather Map
  • News
  • Weather Widgets
  • user-avatar
    Login

    Hourly Weather Rosh Pina

    Today, 21 February, Thursday

    Time Temperature Precipitation Wind Pressure Humidity
    00:00 +9°C° 0 mm 1 mps 736 mmHg 89%
    01:00 +8°C° 0 mm 1 mps 735 mmHg 89%
    02:00 +9°C° 0 mm 1 mps 735 mmHg 88%
    03:00 +8°C° 0 mm 1 mps 735 mmHg 88%
    04:00 +8°C° 0 mm 1 mps 735 mmHg 88%
    05:00 +8°C° 0 mm 1 mps 735 mmHg 87%
    06:00 +9°C° 0 mm 1 mps 735 mmHg 83%
    07:00 +10°C° 0 mm 1 mps 735 mmHg 79%
    08:00 +11°C° 0 mm 1 mps 735 mmHg 75%
    09:00 +13°C° 0 mm 1 mps 735 mmHg 68%
    10:00 +14°C° 0 mm 2 mps 735 mmHg 61%
    11:00 +15°C° 0 mm 2 mps 735 mmHg 54%
    12:00 +16°C° 0.1 mm 2 mps 735 mmHg 56%
    13:00 +16°C° 0.1 mm 3 mps 735 mmHg 57%
    14:00 +15°C° 0.1 mm 4 mps 735 mmHg 59%
    15:00 +14°C° 0.1 mm 3 mps 734 mmHg 65%
    16:00 +13°C° 0.1 mm 3 mps 734 mmHg 71%
    17:00 +13°C° 0.1 mm 2 mps 734 mmHg 77%
    18:00 +12°C° 0 mm 2 mps 734 mmHg 81%
    19:00 +11°C° 0 mm 1 mps 734 mmHg 85%
    20:00 +9°C° 0 mm 1 mps 735 mmHg 88%
    21:00 +9°C° 0 mm 1 mps 735 mmHg 89%
    22:00 +8°C° 0 mm 0 mps 735 mmHg 89%
    23:00 +8°C° 0 mm 0 mps 735 mmHg 89%

    Tomorrow, 22 February, Friday

    Time Temperature Precipitation Wind Pressure Humidity
    00:00 +7°C° 0 mm 0 mps 734 mmHg 89%
    01:00 +7°C° 0 mm 0 mps 734 mmHg 89%
    02:00 +7°C° 0 mm 0 mps 734 mmHg 89%
    03:00 +7°C° 0 mm 0 mps 734 mmHg 89%
    04:00 +7°C° 0 mm 0 mps 734 mmHg 89%
    05:00 +6°C° 0 mm 0 mps 734 mmHg 90%
    06:00 +8°C° 0 mm 0 mps 734 mmHg 86%
    07:00 +9°C° 0 mm 0 mps 734 mmHg 82%
    08:00 +10°C° 0 mm 0 mps 734 mmHg 79%
    09:00 +12°C° 0 mm 1 mps 734 mmHg 73%
    10:00 +14°C° 0 mm 1 mps 734 mmHg 68%
    11:00 +15°C° 0 mm 1 mps 734 mmHg 62%
    12:00 +15°C° 0.3 mm 2 mps 734 mmHg 62%
    13:00 +16°C° 0.3 mm 2 mps 733 mmHg 62%
    14:00 +16°C° 0.3 mm 3 mps 733 mmHg 61%
    15:00 +14°C° 0.2 mm 3 mps 733 mmHg 68%
    16:00 +14°C° 0.2 mm 2 mps 733 mmHg 74%
    17:00 +13°C° 0.2 mm 2 mps 733 mmHg 80%
    18:00 +12°C° 0 mm 2 mps 733 mmHg 84%
    19:00 +11°C° 0 mm 1 mps 733 mmHg 87%
    20:00 +9°C° 0 mm 1 mps 733 mmHg 90%
    21:00 +9°C° 0 mm 1 mps 733 mmHg 90%
    22:00 +9°C° 0 mm 1 mps 733 mmHg 90%
    23:00 +9°C° 0 mm 1 mps 733 mmHg 90%

    Day after tomorrow, 23 February, Saturday

    Time Temperature Precipitation Wind Pressure Humidity
    00:00 +8°C° 0 mm 1 mps 733 mmHg 90%
    01:00 +8°C° 0 mm 1 mps 733 mmHg 90%
    02:00 +8°C° 0 mm 1 mps 733 mmHg 90%
    03:00 +8°C° 0 mm 1 mps 733 mmHg 89%
    04:00 +7°C° 0 mm 1 mps 732 mmHg 89%
    05:00 +7°C° 0 mm 1 mps 732 mmHg 88%
    06:00 +8°C° 0 mm 1 mps 733 mmHg 84%
    07:00 +10°C° 0 mm 1 mps 733 mmHg 80%
    08:00 +11°C° 0 mm 1 mps 734 mmHg 75%
    09:00 +12°C° 0 mm 1 mps 734 mmHg 68%
    10:00 +14°C° 0 mm 2 mps 734 mmHg 61%
    11:00 +15°C° 0 mm 2 mps 734 mmHg 54%
    12:00 +15°C° 0 mm 2 mps 734 mmHg 53%
    13:00 +16°C° 0 mm 2 mps 734 mmHg 53%
    14:00 +16°C° 0 mm 3 mps 733 mmHg 52%
    15:00 +16°C° 0 mm 2 mps 733 mmHg 58%
    16:00 +15°C° 0 mm 2 mps 733 mmHg 64%
    17:00 +14°C° 0 mm 1 mps 733 mmHg 70%
    18:00 +13°C° 0 mm 1 mps 733 mmHg 74%
    19:00 +11°C° 0 mm 1 mps 733 mmHg 78%
    20:00 +10°C° 0 mm 1 mps 734 mmHg 82%
    21:00 +10°C° 0 mm 1 mps 734 mmHg 82%
    22:00 +10°C° 0 mm 1 mps 734 mmHg 81%
    23:00 +9°C° 0 mm 1 mps 734 mmHg 81%

    24 February, Sunday

    Time Temperature Precipitation Wind Pressure Humidity
    00:00 +9°C° 0 mm 1 mps 733 mmHg 79%
    01:00 +8°C° 0 mm 2 mps 733 mmHg 78%
    02:00 +8°C° 0 mm 2 mps 733 mmHg 76%
    03:00 +8°C° 0 mm 2 mps 733 mmHg 75%
    04:00 +8°C° 0 mm 2 mps 733 mmHg 74%
    05:00 +8°C° 0 mm 2 mps 733 mmHg 73%
    06:00 +9°C° 0 mm 2 mps 733 mmHg 70%
    07:00 +10°C° 0 mm 2 mps 734 mmHg 68%
    08:00 +12°C° 0 mm 2 mps 734 mmHg 65%
    09:00 +13°C° 0 mm 3 mps 734 mmHg 57%
    10:00 +16°C° 0 mm 3 mps 734 mmHg 50%
    11:00 +18°C° 0 mm 4 mps 734 mmHg 42%
    12:00 +19°C° 0 mm 4 mps 734 mmHg 40%
    13:00 +20°C° 0 mm 4 mps 733 mmHg 37%
    14:00 +21°C° 0 mm 4 mps 733 mmHg 35%
    15:00 +20°C° 0 mm 3 mps 732 mmHg 39%
    16:00 +19°C° 0 mm 3 mps 732 mmHg 43%
    17:00 +18°C° 0 mm 2 mps 731 mmHg 47%
    18:00 +17°C° 0 mm 3 mps 731 mmHg 43%
    19:00 +17°C° 0 mm 4 mps 731 mmHg 40%
    20:00 +15°C° 0 mm 5 mps 731 mmHg 36%
    21:00 +15°C° 0 mm 5 mps 731 mmHg 36%
    22:00 +15°C° 0 mm 5 mps 731 mmHg 37%
    23:00 +15°C° 0 mm 5 mps 730 mmHg 37%

    25 February, Monday

    Time Temperature Precipitation Wind Pressure Humidity
    00:00 +15°C° 0 mm 6 mps 730 mmHg 37%
    01:00 +15°C° 0 mm 6 mps 729 mmHg 36%
    02:00 +16°C° 0 mm 7 mps 729 mmHg 35%
    03:00 +15°C° 0 mm 7 mps 728 mmHg 36%
    04:00 +15°C° 0 mm 7 mps 728 mmHg 37%
    05:00 +13°C° 0 mm 8 mps 728 mmHg 38%
    06:00 +15°C° 0 mm 8 mps 728 mmHg 40%
    07:00 +15°C° 0 mm 9 mps 728 mmHg 43%
    08:00 +15°C° 0 mm 9 mps 728 mmHg 45%
    09:00 +17°C° 0 mm 10 mps 728 mmHg 44%
    10:00 +19°C° 0 mm 10 mps 728 mmHg 43%
    11:00 +21°C° 0 mm 10 mps 728 mmHg 41%
    12:00 +22°C° 0 mm 10 mps 727 mmHg 40%
    13:00 +23°C° 0 mm 9 mps 727 mmHg 39%
    14:00 +24°C° 0 mm 8 mps 726 mmHg 38%
    15:00 +22°C° 0 mm 7 mps 726 mmHg 42%
    16:00 +21°C° 0 mm 6 mps 726 mmHg 46%
    17:00 +19°C° 0 mm 6 mps 726 mmHg 49%
    18:00 +18°C° 0 mm 4 mps 726 mmHg 52%
    19:00 +17°C° 0 mm 2 mps 727 mmHg 55%
    20:00 +15°C° 0 mm 1 mps 728 mmHg 57%
    21:00 +15°C° 0 mm 1 mps 728 mmHg 64%
    22:00 +14°C° 0 mm 1 mps 728 mmHg 70%
    23:00 +13°C° 0 mm 2 mps 728 mmHg 77%

    26 February, Tuesday

    Time Temperature Precipitation Wind Pressure Humidity
    00:00 +13°C° 0 mm 2 mps 728 mmHg 81%
    01:00 +12°C° 0 mm 1 mps 728 mmHg 85%
    02:00 +12°C° 0 mm 1 mps 728 mmHg 90%
    03:00 +11°C° 0 mm 1 mps 728 mmHg 88%
    04:00 +11°C° 0 mm 1 mps 728 mmHg 86%
    05:00 +11°C° 0 mm 1 mps 728 mmHg 84%
    06:00 +12°C° 0 mm 1 mps 729 mmHg 78%
    07:00 +13°C° 0 mm 2 mps 729 mmHg 72%
    08:00 +14°C° 0 mm 2 mps 729 mmHg 65%
    09:00 +14°C° 0 mm 4 mps 729 mmHg 60%
    10:00 +15°C° 0 mm 6 mps 729 mmHg 54%
    11:00 +16°C° 0 mm 8 mps 729 mmHg 49%
    12:00 +15°C° 0 mm 8 mps 729 mmHg 53%
    13:00 +15°C° 0 mm 8 mps 728 mmHg 57%
    14:00 +15°C° 0 mm 8 mps 728 mmHg 61%
    15:00 +13°C° 0.2 mm 8 mps 728 mmHg 66%
    16:00 +12°C° 0.2 mm 7 mps 728 mmHg 71%
    17:00 +11°C° 0.2 mm 6 mps 727 mmHg 76%
    18:00 +11°C° 2.5 mm 6 mps 727 mmHg 80%
    19:00 +10°C° 2.5 mm 6 mps 727 mmHg 84%
    20:00 +10°C° 2.5 mm 6 mps 727 mmHg 88%
    21:00 +10°C° 1.8 mm 6 mps 727 mmHg 87%
    22:00 +10°C° 1.8 mm 6 mps 726 mmHg 87%
    23:00 +10°C° 1.8 mm 6 mps 726 mmHg 86%
    Show more